Stations météo

Publicité
Boulogne, France (7002): Température de l'air & dewpoint: 16.01.2019 02:00:00 - 22.01.2019 02:00:00 (CET)Boulogne, France (7002): Vitesse du vent & gusts: 16.01.2019 02:00:00 - 22.01.2019 02:00:00 (CET)Boulogne, France (7002): Direction du vent: 16.01.2019 02:00:00 - 22.01.2019 02:00:00 (CET)Boulogne, France (7002): reduced air pressure: 16.01.2019 02:00:00 - 22.01.2019 02:00:00 (CET)Boulogne, France (7002): visibility: 16.01.2019 02:00:00 - 22.01.2019 02:00:00 (CET)Boulogne, France (7002): Quantités de précipitations: 16.01.2019 02:00:00 - 22.01.2019 02:00:00 (CET)
Date & Time tt [°C] td [°C] ff [km/h] ff [knt] fx [km/h] fx [knt] dd ppp [hPa] vv [km] rr [mm]
22.01.2019 02:00:00 0,6 -3,0 20 11 40 22 SSE 1012,2 - 0,0
22.01.2019 01:00:00 0,7 -2,9 19 10 35 19 SSE 1013,7 8 0,0
22.01.2019 00:00:00 0,5 -2,7 19 10 31 17 SSE 1015,1 - 0,0
21.01.2019 23:00:00 0,4 -3,0 21 12 31 17 SSE 1015,9 - 0,0
21.01.2019 22:00:00 0,6 -3,3 17 9 27 15 SSE 1017,2 - 0,0
21.01.2019 21:00:00 0,3 -3,8 14 8 23 13 SSE 1018,2 - 0,0
21.01.2019 20:00:00 0,6 -4,1 16 9 24 13 SSE 1019,2 - 0,0
21.01.2019 19:00:00 0,9 -3,6 13 7 23 12 SSE 1020,2 - 0,0
21.01.2019 18:00:00 1,5 -3,6 13 7 21 11 S 1020,6 - 0,0
21.01.2019 17:00:00 2,6 -1,8 13 7 23 13 S 1021,0 - 0,0
21.01.2019 16:00:00 3,6 -1,2 13 7 24 13 S 1021,4 - 0,0
21.01.2019 15:00:00 3,5 -1,7 13 7 24 13 SSW 1022,3 - 0,0
21.01.2019 14:00:00 3,9 -1,9 8 5 17 9 S 1023,2 - 0,0
21.01.2019 13:00:00 3,5 -1,9 7 4 13 7 SW 1024,0 8 0,0
21.01.2019 12:00:00 3,5 -3,8 4 2 11 6 SSE 1024,6 - 0,0
21.01.2019 11:00:00 1,0 -5,1 7 4 11 6 SE 1024,7 - 0,0
21.01.2019 10:00:00 -0,4 -5,2 3 2 8 5 ESE 1024,9 10 0,0
21.01.2019 09:00:00 -1,3 -6,6 8 4 11 6 E 1024,6 - 0,0
21.01.2019 08:00:00 -0,8 -6,6 9 5 12 6 ENE 1024,6 - 0,0
21.01.2019 07:00:00 -1,3 -6,3 9 5 16 9 NNE 1024,2 - 0,0
21.01.2019 06:00:00 -0,5 -6,7 11 6 19 10 E 1023,7 - 0,0
21.01.2019 05:00:00 -1,2 -6,2 9 5 18 10 E 1024,1 - 0,0
21.01.2019 04:00:00 -0,8 -5,8 11 6 19 11 E 1023,9 - 0,0
21.01.2019 03:00:00 -0,6 -5,4 12 7 19 11 E 1024,0 - 0,0
21.01.2019 02:00:00 -0,7 -4,9 13 7 19 10 E 1023,8 - 0,0
21.01.2019 01:00:00 -0,5 -4,7 13 7 19 10 ENE 1023,9 - 0,0
21.01.2019 00:00:00 -0,7 -4,2 11 6 20 11 E 1023,3 - 0,0
20.01.2019 23:00:00 -0,5 -3,5 13 7 27 15 ENE 1022,6 - 0,0
20.01.2019 22:00:00 -0,5 -2,9 16 9 27 15 ENE 1022,0 - 0,0
20.01.2019 21:00:00 0,8 -2,4 16 9 27 14 ENE 1021,5 - 0,0
20.01.2019 20:00:00 1,8 -1,8 10 6 21 12 NE 1021,0 - 0,0
20.01.2019 19:00:00 1,6 -2,0 8 5 14 8 NE 1020,3 8 0,0
20.01.2019 18:00:00 1,6 -2,5 9 5 16 8 ENE 1019,7 - 0,0
20.01.2019 17:00:00 2,3 -2,6 7 4 19 11 NE 1018,7 - 0,0
20.01.2019 16:00:00 2,8 -3,1 9 5 21 12 NE 1018,2 - 0,0
20.01.2019 15:00:00 3,0 -2,9 10 5 23 12 NE 1017,7 - 0,0
20.01.2019 14:00:00 3,0 -2,3 9 5 22 12 NE 1017,5 - 0,0
20.01.2019 13:00:00 2,8 -2,3 14 8 27 14 ENE 1017,2 - 0,0
20.01.2019 12:00:00 2,5 -0,9 9 5 22 12 ENE 1017,0 - 0,0
20.01.2019 11:00:00 1,3 -0,5 8 5 17 9 NE 1016,5 - 0,0
20.01.2019 10:00:00 -0,6 -2,0 4 2 10 5 N 1015,7 5 0,0
20.01.2019 09:00:00 -0,2 -1,9 5 3 13 7 NE 1014,7 - 0,0
20.01.2019 08:00:00 0,5 -1,3 6 3 12 7 E 1013,7 - 0,0
20.01.2019 07:00:00 0,4 -1,5 8 4 16 9 E 1013,0 8 0,0
20.01.2019 06:00:00 0,7 -1,9 9 5 21 11 E 1012,7 - 0,0
20.01.2019 05:00:00 0,8 -1,6 14 7 22 12 E 1012,4 - 0,0
20.01.2019 04:00:00 1,0 -1,4 12 7 22 12 E 1012,0 - 0,0
20.01.2019 03:00:00 1,3 -1,3 8 5 20 11 E 1011,6 - 0,0
20.01.2019 02:00:00 1,3 -1,3 12 7 25 13 E 1011,4 - 0,0
20.01.2019 01:00:00 1,3 -1,3 14 8 23 12 E 1011,4 8 0,0
20.01.2019 00:00:00 1,3 -1,4 11 6 20 11 E 1011,2 - 0,0
19.01.2019 23:00:00 1,2 -1,7 9 5 22 12 E 1011,0 - 0,0
19.01.2019 22:00:00 1,1 -1,8 16 9 29 16 ESE 1010,6 8 0,0
19.01.2019 21:00:00 1,3 -2,1 16 9 32 17 ESE 1010,4 - 0,0
19.01.2019 20:00:00 1,6 -2,5 15 8 34 18 ESE 1010,2 - 0,0
19.01.2019 19:00:00 1,5 -3,0 19 10 35 19 ESE 1010,2 12 0,0
19.01.2019 18:00:00 1,9 -3,0 18 10 34 19 ESE 1009,9 - 0,0
19.01.2019 17:00:00 2,8 -2,7 16 9 35 19 ESE 1009,5 - 0,0
19.01.2019 16:00:00 3,4 -2,6 20 11 39 21 SE 1009,4 - 0,0
19.01.2019 15:00:00 3,4 -2,4 21 11 40 22 SE 1009,8 - 0,0
19.01.2019 14:00:00 3,6 -2,4 22 12 40 22 SE 1010,4 - 0,0
19.01.2019 13:00:00 3,4 -3,0 21 11 42 23 SE 1011,1 - 0,0
19.01.2019 12:00:00 2,4 -2,9 21 12 42 23 SE 1011,9 - 0,0
19.01.2019 11:00:00 1,6 -2,5 21 11 41 22 SE 1012,1 - 0,0
19.01.2019 10:00:00 0,8 -2,8 20 11 40 22 SE 1012,0 12 0,0
19.01.2019 09:00:00 0,0 -2,9 23 12 42 23 SE 1011,9 - 0,0
19.01.2019 08:00:00 -0,3 -3,0 21 12 38 21 SE 1012,1 - 0,0
19.01.2019 07:00:00 -0,5 -3,0 23 12 45 24 SE 1012,5 10 0,0
19.01.2019 06:00:00 -0,3 -2,8 22 12 40 22 SE 1013,0 - 0,0
19.01.2019 05:00:00 -0,4 -2,6 21 11 48 26 SE 1013,6 - 0,0
19.01.2019 04:00:00 -0,1 -2,3 23 12 41 22 SE 1014,1 10 0,0
19.01.2019 03:00:00 -0,1 -1,8 21 11 38 21 SE 1014,7 - 0,0
19.01.2019 02:00:00 0,1 -1,5 23 12 42 23 SE 1015,0 - 0,0
19.01.2019 01:00:00 0,3 -1,3 24 13 43 23 SE 1015,3 10 0,0
19.01.2019 00:00:00 0,6 -1,2 20 11 37 20 SE 1016,0 - 0,0
18.01.2019 23:00:00 1,0 -1,1 21 11 37 20 SE 1016,0 - 0,0
18.01.2019 22:00:00 1,3 -1,1 19 10 36 19 SE 1016,1 12 0,0
18.01.2019 21:00:00 1,8 -1,1 18 10 35 19 SE 1016,4 - 0,0
18.01.2019 20:00:00 2,1 -0,8 19 11 37 20 SE 1016,7 - 0,0
18.01.2019 19:00:00 2,8 -0,5 19 10 31 17 SSE 1016,9 15 0,0
18.01.2019 18:00:00 3,2 -0,4 16 8 27 15 SSE 1017,2 - 0,0
18.01.2019 17:00:00 4,0 -0,4 14 8 26 14 SSE 1017,4 - 0,0
18.01.2019 16:00:00 4,8 -0,4 17 9 30 16 SSE 1017,5 15 0,0
18.01.2019 15:00:00 5,7 -0,4 14 8 27 15 SSE 1018,0 - 0,0
18.01.2019 14:00:00 5,4 0,2 16 8 28 15 SSE 1018,5 - 0,0
18.01.2019 13:00:00 4,7 0,3 13 7 22 12 SSE 1019,1 15 0,0
18.01.2019 12:00:00 3,9 0,1 11 6 20 11 SE 1019,6 - 0,0
18.01.2019 11:00:00 2,6 -0,5 11 6 18 10 SE 1019,8 - 0,0
18.01.2019 10:00:00 1,3 -0,9 11 6 19 10 SE 1019,6 14 0,0
18.01.2019 09:00:00 1,0 -0,9 11 6 16 9 SE 1019,4 - 0,0
18.01.2019 08:00:00 1,4 -0,7 9 5 12 6 SE 1019,2 - 0,0
18.01.2019 07:00:00 1,4 -0,8 8 5 10 6 SE 1019,3 - 0,0
18.01.2019 06:00:00 2,5 -0,6 4 2 8 5 ESE 1019,3 - 0,0
18.01.2019 05:00:00 3,0 -0,5 8 4 11 6 NW 1019,3 - 0,0
18.01.2019 04:00:00 3,1 -0,7 6 3 11 6 N 1019,5 12 0,0
18.01.2019 03:00:00 3,3 -0,9 6 3 19 11 NE 1019,4 - 0,0
18.01.2019 02:00:00 3,4 -1,0 9 5 28 15 N 1019,3 - 0,0
18.01.2019 01:00:00 3,4 -1,2 17 9 31 17 NNW 1019,1 - 0,0
18.01.2019 00:00:00 3,4 -1,2 16 8 32 18 N 1018,7 - 0,0
17.01.2019 23:00:00 3,3 -1,5 14 8 46 25 N 1018,0 - 0,0
17.01.2019 22:00:00 3,8 -1,2 27 15 54 29 NNW 1017,8 12 0,0
17.01.2019 21:00:00 3,7 -1,1 36 19 54 29 NNW 1017,2 - 0,0
17.01.2019 20:00:00 3,7 -1,5 30 16 61 33 NNW 1016,3 - 0,0
17.01.2019 19:00:00 3,8 -2,0 36 19 53 28 NNW 1015,8 12 0,0
17.01.2019 18:00:00 3,7 -2,1 32 17 55 30 NNW 1015,1 - 0,0
17.01.2019 17:00:00 3,9 -2,1 29 16 55 30 NW 1014,0 - 0,0
17.01.2019 16:00:00 4,1 -2,1 32 17 53 29 NW 1012,8 12 0,0
17.01.2019 15:00:00 3,9 -2,3 31 17 52 28 NW 1012,0 - 0,0
17.01.2019 14:00:00 4,0 -1,8 31 17 50 27 NW 1011,2 - 0,0
17.01.2019 13:00:00 3,4 -1,0 30 16 52 28 NNW 1010,5 12 0,0
17.01.2019 12:00:00 4,1 0,8 28 15 46 25 NNW 1009,7 - 0,0
17.01.2019 11:00:00 4,5 1,3 31 17 51 28 NNW 1008,9 - 0,0
17.01.2019 10:00:00 4,5 1,5 32 17 53 29 NNW 1007,3 - 0,0
17.01.2019 09:00:00 5,1 2,4 32 17 54 29 NNW 1005,7 - 0,2
17.01.2019 08:00:00 5,0 3,3 31 17 50 27 NNW 1004,2 - 0,0
17.01.2019 07:00:00 5,4 3,7 29 15 46 25 NW 1003,0 12 0,0
17.01.2019 06:00:00 4,6 3,7 14 8 27 15 SSW 1002,6 - 1,6
17.01.2019 05:00:00 4,4 3,2 14 7 38 20 S 1003,0 - 2,4
17.01.2019 04:00:00 4,7 3,2 23 12 51 27 W 1004,1 4,0 2,0
17.01.2019 03:00:00 6,7 3,5 11 6 29 16 SW 1003,7 - 0,0
17.01.2019 02:00:00 6,8 3,9 18 10 33 18 W 1004,3 - 0,0
17.01.2019 01:00:00 6,9 4,4 24 13 37 20 W 1004,6 - 0,0
17.01.2019 00:00:00 6,6 3,9 25 13 39 21 W 1004,8 - 0,0
16.01.2019 23:00:00 6,3 4,8 22 12 34 18 W 1004,7 - 0,0
16.01.2019 22:00:00 5,7 5,0 18 10 33 18 WNW 1004,2 10 0,0
16.01.2019 21:00:00 5,9 5,3 21 11 64 34 NNW 1003,5 - 1,8
16.01.2019 20:00:00 7,4 6,5 35 19 61 33 SW 1002,8 - 0,4
16.01.2019 19:00:00 7,5 6,4 34 18 62 33 SW 1003,2 - 0,0
16.01.2019 18:00:00 7,2 6,0 35 19 64 34 SW 1003,8 - 0,2
16.01.2019 17:00:00 7,4 4,9 32 17 53 29 SSW 1004,3 - 0,0
16.01.2019 16:00:00 6,7 4,7 29 16 51 28 SSW 1005,1 6 0,0
16.01.2019 15:00:00 6,6 3,9 29 16 57 31 SSW 1005,8 - 0,0
16.01.2019 14:00:00 6,5 4,2 31 17 54 29 SSW 1006,8 - 0,0
16.01.2019 13:00:00 6,5 4,0 28 15 55 30 SSW 1007,9 8 0,0
16.01.2019 12:00:00 6,5 3,6 29 16 56 30 SSW 1009,0 - 0,0
16.01.2019 11:00:00 6,3 4,0 28 15 52 28 SSW 1010,1 - 0,0
16.01.2019 10:00:00 6,2 4,4 29 15 55 30 SSW 1010,4 6 0,0
16.01.2019 09:00:00 6,3 4,6 27 15 53 29 SSW 1010,6 - 0,0
16.01.2019 08:00:00 6,5 4,3 30 16 54 29 SSW 1011,0 - 0,0
16.01.2019 07:00:00 6,7 4,5 29 15 67 36 SSW 1011,6 7 0,0
16.01.2019 06:00:00 6,8 4,9 32 18 60 32 SW 1012,2 - 0,0
16.01.2019 05:00:00 6,9 5,2 31 17 56 30 SSW 1012,9 - 0,0
16.01.2019 04:00:00 7,0 5,5 35 19 55 30 SW 1013,9 - 0,0
16.01.2019 03:00:00 6,8 5,9 30 16 60 33 SW 1014,5 - 0,0
16.01.2019 02:00:00 6,7 6,3 31 17 61 33 SW 1015,3 - 0,2

tt = Température de l'air
td = dewpoint
ff = Vitesse du vent
fx = gusts
dd = Direction du vent
ppp = reduced air pressure
vv = visibility
rr = Quantités de précipitations

stations d'obs. à proximité